EDT,Max TemperatureF,Mean TemperatureF,Min TemperatureF,Max Dew PointF,MeanDew PointF,Min DewpointF,Max Humidity, Mean Humidity, Min Humidity, Max Sea Level PressureIn, Mean Sea Level PressureIn, Min Sea Level PressureIn, Max VisibilityMiles, Mean VisibilityMiles, Min VisibilityMiles, Max Wind SpeedMPH, Mean Wind SpeedMPH, Max Gust SpeedMPH,PrecipitationIn, CloudCover, Events, WindDirDegrees
2012-9-1,87,78,68,70,67,61,97,73,48,30.24,30.14,30.07,10,10,10,16,4,20,T,1,Rain,307
2012-9-2,84,76,67,70,68,66,100,79,58,30.17,30.07,29.95,10,6,0,16,5,21,0.02,3,Fog-Rain,183
2012-9-3,80,73,66,70,68,64,100,84,67,30.09,30.02,29.92,10,8,1,16,5,21,0.65,6,Rain,158
2012-9-4,76,72,68,70,68,66,97,90,82,30.05,30.00,29.91,10,8,2,10,4,16,0.19,8,Rain,158
2012-9-5,81,75,68,72,68,66,97,82,67,30.04,29.95,29.87,10,9,1,15,5,20,0.18,6,Rain,174
2012-9-6,84,76,67,68,66,63,100,74,48,30.04,29.95,29.89,10,10,8,16,6,20,0.00,3,,342
2012-9-7,85,74,63,69,65,62,100,74,48,30.08,29.98,29.87,10,7,1,12,3,17,0.00,4,,294
2012-9-8,83,72,60,68,63,57,97,76,54,29.96,29.84,29.75,10,9,4,29,8,41,0.05,4,Rain,354
2012-9-9,74,64,53,56,50,47,93,66,38,30.07,29.96,29.88,10,10,10,17,8,24,0.00,1,,345
2012-9-10,78,64,49,54,49,45,100,67,33,30.17,30.12,30.06,10,9,1,14,4,18,0.00,1,,348
2012-9-11,75,66,56,58,55,52,93,71,49,30.30,30.25,30.17,10,10,10,13,3,17,0.00,4,,187
2012-9-12,77,67,56,59,56,53,100,73,46,30.41,30.34,30.26,10,5,0,12,2,17,0.00,5,Fog,163
2012-9-13,73,64,54,57,54,52,100,75,49,30.41,30.34,30.26,10,6,0,10,2,14,0.00,3,Fog,158
2012-9-14,80,68,56,59,55,53,93,68,42,30.32,30.24,30.19,10,10,10,13,3,18,0.00,1,,326
2012-9-15,81,68,54,63,57,52,93,65,36,30.24,30.17,30.11,10,10,6,9,2,13,0.05,3,Rain,277
2012-9-16,73,68,63,66,63,61,93,83,73,30.21,30.13,30.06,10,6,2,12,3,15,0.10,7,Rain,166
2012-9-17,71,67,63,66,64,61,100,90,79,30.15,30.04,29.80,10,6,0,17,5,23,1.01,7,Fog-Rain,145
2012-9-18,69,64,58,66,64,51,93,84,75,29.91,29.78,29.70,10,5,1,24,9,32,3.28,7,Rain,176
2012-9-19,74,64,53,58,52,47,84,67,49,30.16,30.05,29.95,10,10,10,16,7,20,0.00,4,,13
2012-9-20,73,66,58,58,56,55,93,77,61,30.20,30.12,30.04,10,10,10,13,5,18,0.00,4,,153
2012-9-21,77,66,54,62,56,53,100,73,46,30.16,30.09,29.99,10,5,0,13,3,15,0.00,2,Fog,171
2012-9-22,81,69,56,60,55,45,93,64,35,30.07,30.00,29.92,10,8,0,17,7,24,0.00,2,Fog,293
2012-9-23,72,61,49,47,41,34,77,52,26,30.17,30.10,30.05,10,10,10,17,7,22,0.00,0,,347
2012-9-24,70,57,44,47,41,37,93,65,37,30.25,30.20,30.14,10,10,10,13,5,16,0.00,0,,47
2012-9-25,75,58,41,58,47,39,100,77,53,30.25,30.22,30.18,10,7,0,12,3,15,0.00,2,Fog,130
2012-9-26,80,66,51,61,54,50,100,71,42,30.26,30.21,30.14,10,6,0,10,1,14,0.00,2,Fog,155
2012-9-27,79,67,55,62,56,54,100,71,42,30.29,30.21,30.12,10,5,0,14,2,20,0.00,2,Fog,332
2012-9-28,81,68,54,62,57,53,93,72,51,30.19,30.12,30.01,10,6,0,15,3,21,T,2,Fog,302
2012-9-29,72,65,57,62,60,56,93,83,73,30.06,29.97,29.87,10,7,1,18,5,22,0.40,6,Rain,342
2012-9-30,69,63,56,57,54,52,100,79,58,29.98,29.91,29.84,10,9,5,13,4,15,T,6,,360